Weather History for Grand Island, NE

Change the Weather History Date:

Thursday, November 14, 2013

  Actual Average Record
Temperature  
Mean Temperature 47 °F 39 °F  
Max Temperature 62 °F 50 °F 71 °F (2001)
Min Temperature 32 °F 28 °F -7 °F (1940)
Degree Days  
Heating Degree Days 18 26  
Month to date heating degree days 325 318  
Since 1 July heating degree days 752 841  
Cooling Degree Days 0 0  
Month to date cooling degree days 0 0  
Year to date cooling degree days 1265 1034  
Moisture  
Dew Point 35 °F    
Average Humidity 66    
Maximum Humidity 89    
Minimum Humidity 42    
Precipitation  
Precipitation 0.00 in 0.04 in 0.75 in (1947)
Month to date precipitation 0.90 0.58  
Year to date precipitation 26.74 25.44  
Snow  
Snow 0.00 in 0.10 in 4.30 in (1947)
Month to date snowfall T 1.1  
Since 1 July snowfall T 2.2  
Since 1 September snowfall T 2.2  
Snow Depth 0.00 in    
Sea Level Pressure  
Sea Level Pressure 29.94 in    
Wind  
Wind Speed 7 mph (West)    
Max Wind Speed 21 mph    
Max Gust Speed 25 mph    
Visibility 10 miles    
Events      
T = Trace of Precipitation, MM = Missing Value Source: NWS Daily Summary

Daily Weather History Graph

Daily Weather History Graph

Search for Another Location

Airport:

Trip Planner

Search our weather history database for the weather conditions in past years. The results will help you decide how hot, cold, wet, or windy it might be!

Date:

Astronomy

Nov. 14, 2013 Rise Set
Actual Time 7:19 AM CST 5:15 PM CST
Civil Twilight 6:50 AM CST 5:44 PM CST
Nautical Twilight 6:17 AM CST 6:17 PM CST
Astronomical Twilight 5:44 AM CST 6:50 PM CST
Moon 3:38 PM CST (11/14) 4:15 AM CST (11/14)
Length of Visible Light 10h 54m
Length of Day
9h 55m
Waxing Gibbous, 92% of the Moon is Illuminated
Nov 14
Waxing Gibbous
Nov 17
Full
Nov 25
Last Quarter
Dec 2
New
Dec 9
First Quarter

Hourly Weather History & Observations

Time (CST) Temp. Windchill Dew Point Humidity Pressure Visibility Wind Dir Wind Speed Gust Speed Precip Events Conditions
12:53 AM 43.0 °F 36.0 °F 32.0 °F 65% 29.94 in 10.0 mi SSW 13.8 mph 20.7 mph N/A   Clear
1:53 AM 39.9 °F 36.7 °F 32.0 °F 73% 29.94 in 10.0 mi WSW 4.6 mph - N/A   Clear
2:53 AM 37.0 °F 32.4 °F 30.9 °F 79% 29.93 in 10.0 mi SW 5.8 mph - N/A   Clear
3:53 AM 37.0 °F 34.5 °F 30.9 °F 79% 29.92 in 10.0 mi SSW 3.5 mph - N/A   Clear
4:53 AM 37.0 °F 33.3 °F 30.9 °F 79% 29.93 in 10.0 mi SSW 4.6 mph - N/A   Clear
5:53 AM 35.1 °F 31.0 °F 30.0 °F 82% 29.94 in 10.0 mi South 4.6 mph - N/A   Clear
6:53 AM 33.1 °F 27.7 °F 30.0 °F 89% 29.96 in 10.0 mi NW 5.8 mph - N/A   Clear
7:53 AM 34.0 °F - 30.9 °F 89% 29.96 in 10.0 mi Calm Calm - N/A   Clear
8:53 AM 43.0 °F 37.7 °F 36.0 °F 76% 29.98 in 10.0 mi North 9.2 mph - N/A   Clear
9:53 AM 48.9 °F - 37.0 °F 64% 29.99 in 10.0 mi NNW 13.8 mph - N/A   Clear
10:53 AM 52.0 °F - 39.0 °F 61% 29.98 in 10.0 mi North 17.3 mph 25.3 mph N/A   Partly Cloudy
11:53 AM 57.9 °F - 39.9 °F 51% 29.96 in 10.0 mi North 15.0 mph 20.7 mph N/A   Clear
12:53 PM 59.0 °F - 39.0 °F 48% 29.94 in 10.0 mi North 12.7 mph - N/A   Clear
1:53 PM 61.0 °F - 39.9 °F 46% 29.92 in 10.0 mi North 11.5 mph - N/A   Clear
2:53 PM 60.1 °F - 37.9 °F 44% 29.91 in 10.0 mi North 6.9 mph - N/A   Partly Cloudy
3:53 PM 59.0 °F - 37.0 °F 44% 29.92 in 10.0 mi NNW 4.6 mph - N/A   Clear
4:53 PM 54.0 °F - 37.0 °F 53% 29.93 in 10.0 mi NNW 3.5 mph - N/A   Clear
5:53 PM 48.9 °F - 37.0 °F 64% 29.93 in 10.0 mi Calm Calm - N/A   Clear
6:53 PM 45.0 °F 43.5 °F 35.1 °F 68% 29.95 in 10.0 mi South 3.5 mph - N/A   Clear
7:53 PM 43.0 °F 39.5 °F 35.1 °F 74% 29.95 in 10.0 mi South 5.8 mph - N/A   Clear
8:53 PM 39.0 °F 34.8 °F 35.1 °F 86% 29.94 in 10.0 mi SSW 5.8 mph - N/A   Clear
9:53 PM 41.0 °F 38.0 °F 36.0 °F 82% 29.94 in 10.0 mi SSW 4.6 mph - N/A   Clear
10:53 PM 37.9 °F 34.4 °F 34.0 °F 86% 29.93 in 10.0 mi SW 4.6 mph - N/A   Clear
11:53 PM 37.0 °F 33.3 °F 33.1 °F 86% 29.91 in 10.0 mi SSW 4.6 mph - N/A   Clear